Dewpoint
71 71 70 70 70 68 67 67 59 60 59 54 54 54 54 61 60 58 58 58 56 58 62 58 56 57 57 54 54 59 59 55 55 48 49 63 68 68 70 72 72 72 71 71 72 74 74 73 74 75 75 76 76 76 76 76 75 76 76 76 76 76 76 76 76 76 76 76 76 76 75 75 75 75 75 75 75 75 75 76 75 75 75 75 75 75 75 75 75 75 76 76 76 76 76 76 75
70 70 69 69 68 68 63 66 59 56 56 53 54 56 57 61 59 57 56 57 56 58 57 56 59 63 62 58 59 57 58 61 62 61 64 66 67 68 69 72 71 71 71 72 73 73 73 75 75 75 75 76 76 75 75 76 76 76 76 76 75 75 75 75 76 76 76 75 75 75 75 75 75 75 75 75 75 75 76 76 76 75 75 75 75 75 75 75 75 75 75 75 76 76 75 75 75
70 68 67 69 68 68 66 66 55 55 52 51 54 57 60 58 58 58 59 60 59 58 56 59 61 62 60 57 55 57 55 63 62 62 64 67 66 68 69 70 72 72 72 72 72 73 74 75 76 76 76 76 75 75 75 76 76 76 75 75 75 75 75 75 75 75 75 75 75 75 74 75 75 75 75 74 75 76 75 75 75 75 75 75 75 75 75 75 75 75 75 75 75 75 75 76 76
69 68 67 68 65 69 62 62 58 56 53 54 54 58 59 58 58 60 62 61 59 57 57 58 59 61 60 56 59 59 60 60 62 63 64 65 66 68 69 71 73 72 72 72 73 73 76 76 76 76 75 75 75 75 75 75 75 75 74 75 75 75 75 74 75 75 75 74 74 75 75 75 74 74 74 75 75 75 75 75 75 75 75 75 75 75 75 75 75 75 75 75 75 75 75 75 75
67 68 68 67 68 62 62 60 59 58 54 54 53 58 59 60 59 61 62 61 58 58 56 59 59 64 65 62 62 58 60 63 62 64 63 66 68 69 70 71 72 71 72 72 72 72 75 76 76 75 75 75 75 75 75 75 74 74 75 75 75 75 75 75 75 75 75 75 75 75 74 73 74 75 75 74 74 75 75 75 75 75 75 75 75 74 74 75 75 75 76 75 75 76 76 76 76
67 67 69 69 65 69 64 58 56 57 58 58 55 57 59 59 61 62 61 61 61 57 58 60 59 59 60 62 62 60 62 57 62 63 65 66 68 69 70 72 71 71 71 73 73 74 74 76 75 75 75 75 75 75 75 75 75 75 74 75 75 75 75 75 75 75 75 75 74 74 73 73 74 73 74 75 75 75 75 75 74 75 75 75 75 75 75 75 75 76 76 76 75 75 75 75 76
66 68 69 69 68 68 59 56 56 56 58 61 58 58 59 60 61 61 61 60 62 60 60 61 61 60 59 62 63 65 65 64 63 64 66 68 69 70 70 70 71 71 71 72 73 74 75 76 76 76 75 75 75 75 75 75 75 75 75 75 74 74 75 75 74 75 75 75 74 73 73 74 73 73 74 74 75 74 75 75 75 75 75 75 74 75 75 75 75 75 75 75 75 75 75 76 76
69 67 67 63 60 62 58 57 56 57 58 61 61 59 62 63 61 61 59 58 59 58 58 60 60 60 60 62 61 66 66 66 65 67 67 68 69 70 70 69 70 70 70 72 73 74 76 76 76 75 75 75 75 75 75 75 75 75 75 75 74 74 74 74 74 74 74 74 73 73 73 74 73 73 74 74 74 74 74 75 75 75 75 74 75 76 75 75 75 74 74 74 75 75 75 75 75
68 67 68 64 59 61 59 58 57 60 59 61 62 64 64 63 62 61 59 59 60 59 58 58 59 57 61 61 62 66 66 67 67 68 68 69 69 70 69 69 69 69 70 71 72 74 75 76 75 75 74 74 75 74 75 75 75 75 75 75 74 74 74 74 74 74 74 74 74 74 75 74 74 74 73 74 74 74 74 74 74 75 75 75 75 75 75 75 74 75 74 74 74 74 74 75 74
68 69 62 62 60 57 57 57 58 59 58 61 62 63 63 63 61 62 60 58 60 58 59 60 59 59 61 60 61 63 65 67 68 68 69 69 69 70 69 69 69 69 70 71 72 73 74 76 75 75 75 75 75 75 75 75 75 75 75 75 75 74 74 74 74 74 74 74 74 74 74 74 73 73 73 74 75 74 74 74 74 75 75 75 74 75 75 75 75 75 74 74 74 74 74 74 74
64 66 67 60 57 56 56 57 58 60 60 62 62 65 65 64 61 60 60 59 59 59 60 60 60 59 59 61 64 67 67 67 67 66 68 69 70 69 69 70 70 70 70 71 71 73 72 73 75 75 75 75 75 75 75 75 75 75 75 75 75 74 74 74 74 74 74 74 74 74 74 74 73 74 73 74 74 74 74 73 73 74 75 75 75 74 75 74 74 75 75 74 74 74 74 74 74
62 63 63 57 57 57 57 58 58 59 60 61 60 64 65 63 61 60 60 58 59 59 59 59 59 60 59 60 62 66 67 66 67 67 69 69 69 70 70 69 69 70 71 71 72 72 72 75 76 75 75 75 75 75 75 75 75 75 74 74 74 73 74 74 73 73 73 73 73 73 74 74 74 74 73 73 73 73 73 73 74 74 74 74 75 74 74 74 75 75 75 74 73 73 73 74 73
63 64 61 57 57 58 59 58 57 58 58 59 60 65 67 62 61 61 61 59 59 58 58 61 61 59 57 59 65 65 65 66 67 68 68 69 69 70 70 69 70 70 71 72 71 72 73 74 74 75 75 75 75 75 75 75 75 74 74 73 73 73 74 73 73 74 73 73 73 73 73 74 73 73 73 73 73 73 73 74 74 74 73 74 75 73 74 74 74 74 74 74 73 74 74 74 73
63 64 62 57 61 60 59 58 59 56 57 61 64 65 66 62 62 61 60 59 58 58 60 61 60 61 60 61 65 62 64 66 67 68 68 69 70 70 69 70 70 70 71 71 72 71 72 73 73 74 75 75 75 75 74 74 74 74 73 73 74 73 72 72 73 73 74 74 74 73 74 74 74 74 74 73 73 73 74 74 74 74 73 73 74 74 75 74 74 74 74 74 74 74 74 74 74
64 68 62 59 60 59 59 56 56 55 56 61 65 64 64 65 63 61 61 60 61 61 62 62 61 57 57 58 59 61 65 66 67 68 69 69 69 70 70 70 70 71 71 71 71 72 72 73 73 74 75 74 75 75 74 74 73 73 73 73 73 73 71 72 73 74 75 75 74 74 75 75 74 74 74 74 74 74 75 73 73 74 73 73 73 74 74 75 75 75 75 75 75 75 75 75 74
67 65 62 59 58 58 58 58 58 56 57 61 64 65 63 63 63 61 62 63 62 61 60 58 60 58 59 58 59 64 65 67 67 68 68 69 70 69 69 70 70 70 71 71 71 72 72 73 73 73 74 74 74 73 74 74 74 73 73 73 73 74 73 74 75 74 74 74 75 75 75 75 74 73 75 74 74 74 74 74 74 74 73 73 73 73 74 74 75 75 75 75 74 74 74 74 74
68 66 60 59 57 58 56 57 57 54 60 62 65 64 60 60 65 65 66 63 59 59 59 60 58 60 60 61 64 65 66 67 68 68 68 68 68 67 69 70 70 70 70 71 72 72 72 72 73 73 73 73 73 73 74 74 73 74 73 73 74 74 73 74 75 75 74 74 74 74 74 73 75 76 75 74 74 73 74 74 73 73 74 73 73 73 73 73 74 75 75 74 74 75 75 75 75
66 62 59 57 61 58 59 59 57 61 60 61 64 63 61 60 62 62 62 62 62 61 60 62 62 62 64 65 66 66 66 67 67 67 66 66 67 66 67 68 68 68 69 70 72 72 72 73 74 74 74 74 74 74 74 75 75 75 75 75 75 75 75 75 76 75 75 75 74 74 74 73 73 75 74 74 74 73 73 73 73 73 73 73 73 72 73 74 74 74 74 74 74 75 75 75 74
64 62 61 56 59 61 64 63 62 60 61 63 64 64 62 61 62 61 60 60 61 60 61 61 62 64 65 66 66 66 67 67 66 66 65 65 65 65 66 68 68 68 68 70 71 72 72 72 74 73 74 75 74 75 74 75 76 75 76 75 76 75 75 75 75 75 75 75 75 74 75 74 74 74 74 74 74 73 73 73 73 73 73 73 73 73 73 73 74 74 74 74 74 75 75 74 73
64 61 58 58 61 63 64 64 64 66 62 63 62 62 63 62 61 61 60 59 58 58 58 60 60 62 64 65 65 66 66 66 66 66 65 65 65 65 66 66 67 68 68 69 70 71 72 72 73 74 74 74 74 73 74 74 74 75 75 75 75 75 75 75 75 75 74 74 74 73 75 74 74 75 74 74 74 73 73 74 73 73 73 73 73 72 73 74 74 74 74 74 74 73 73 72 72
63 62 58 59 62 62 63 65 65 65 64 62 62 62 62 63 62 62 60 57 58 58 59 59 60 61 63 64 64 65 66 65 66 65 65 65 65 65 66 66 67 68 69 70 71 71 72 72 73 74 74 74 74 73 73 73 75 74 74 74 75 74 74 74 74 74 74 74 74 74 74 74 74 74 74 74 74 73 73 73 74 74 73 73 73 72 74 73 74 74 73 73 73 72 71 72 72
62 61 62 62 63 63 65 66 66 64 65 63 62 61 62 62 62 62 60 56 56 57 60 61 62 62 63 63 64 65 65 65 65 65 65 65 65 66 67 67 68 68 70 69 70 71 71 72 73 73 73 74 74 73 73 74 74 74 74 74 74 74 73 73 73 74 74 74 74 73 74 75 75 74 74 74 73 73 74 73 74 74 76 74 74 74 74 74 73 72 72 72 72 72 72 72 72
59 61 62 63 64 64 66 66 66 65 64 62 62 64 63 60 60 60 60 61 61 60 61 63 63 63 63 64 64 64 64 64 65 65 65 65 65 66 66 67 67 68 69 69 70 71 71 72 73 73 73 74 74 74 74 73 73 74 74 74 74 73 73 72 72 73 74 74 73 74 74 74 74 74 74 75 75 76 74 73 74 76 75 75 75 74 74 73 72 71 72 72 73 70 70 72 72
62 59 60 63 66 65 66 65 66 63 64 63 65 65 62 60 59 61 60 61 61 62 63 64 64 64 65 64 64 64 64 65 65 66 66 66 66 66 67 66 67 68 70 69 70 70 71 71 73 73 73 73 73 74 73 73 74 73 74 76 74 74 73 72 72 73 73 74 74 74 74 74 73 73 74 75 75 74 74 75 74 73 73 73 74 73 72 72 72 72 73 73 72 71 69 72 71
60 59 62 63 65 65 66 66 64 65 65 65 64 63 64 62 61 60 61 60 62 62 64 64 64 64 64 64 65 65 65 65 65 66 66 66 66 66 67 67 68 69 68 69 69 70 70 71 72 72 72 73 73 73 72 72 73 74 74 73 74 74 73 73 73 73 73 74 74 74 74 73 73 72 73 73 74 74 74 73 73 72 73 73 73 72 73 72 72 72 73 73 73 72 71 71 71
60 60 60 62 64 65 66 66 65 65 66 64 63 63 64 64 63 61 60 61 62 63 63 63 63 64 64 64 65 65 65 65 65 65 65 66 66 66 67 67 68 68 68 69 69 70 71 71 70 71 72 73 73 71 73 72 73 73 73 73 74 74 74 74 74 73 73 73 73 74 73 73 73 72 72 74 73 75 74 74 73 72 72 73 72 73 73 73 73 73 73 73 72 73 71 73 72
61 60 59 62 64 64 66 65 65 66 65 64 62 62 62 63 63 58 61 61 62 63 63 63 63 63 64 64 65 65 65 65 65 65 65 65 66 66 66 67 68 68 69 69 69 70 72 71 70 72 72 73 72 71 72 73 73 73 73 74 74 74 74 74 73 73 72 72 73 74 74 74 73 72 73 74 75 75 75 74 73 73 72 72 73 73 74 74 74 73 74 74 74 74 72 72 71
60 60 62 62 64 64 66 66 65 64 64 65 63 62 62 62 61 59 60 61 62 62 62 63 63 63 64 64 64 65 65 66 66 66 65 65 65 65 66 67 67 68 69 69 70 72 71 70 70 71 72 73 73 71 73 72 73 73 73 74 74 74 74 74 73 72 73 73 74 74 74 74 75 74 75 74 74 75 74 73 73 73 73 73 74 74 74 75 75 75 77 77 76 74 73 73 74
60 60 58 61 62 62 65 63 64 65 63 64 63 60 59 59 61 62 61 61 61 61 62 62 63 63 63 64 64 65 65 65 66 66 66 66 66 66 66 67 68 68 69 70 71 71 70 71 71 72 72 73 73 71 72 72 72 72 73 73 74 74 74 73 73 72 73 73 74 74 74 74 75 74 75 75 75 73 75 74 73 74 74 75 74 75 75 75 75 75 75 75 74 73 70 72 71
62 62 59 59 59 60 61 64 65 64 64 65 62 55 57 59 62 62 63 61 61 61 62 62 62 63 63 64 64 64 65 65 66 66 66 66 66 66 66 67 68 68 69 71 71 71 71 71 71 71 72 72 73 71 73 72 72 73 73 73 74 75 75 74 73 73 73 73 73 74 74 74 74 75 75 75 74 75 74 73 73 73 74 75 75 76 74 74 74 74 74 73 72 72 70 71 68
60 61 61 58 58 56 61 61 64 62 65 65 64 56 56 59 62 62 61 61 60 60 61 61 62 62 62 63 64 64 65 66 66 66 67 67 66 66 67 67 68 69 70 70 70 71 71 72 71 71 72 72 72 72 72 72 72 72 72 73 74 74 74 74 73 72 72 72 73 73 74 74 74 76 75 75 74 73 72 72 73 72 75 75 74 76 75 74 74 74 74 72 71 70 69 72 70
60 57 57 58 55 58 58 62 63 60 62 65 62 56 56 58 61 62 62 61 60 60 61 61 61 61 62 63 63 64 65 65 66 66 66 67 66 66 66 67 68 69 69 70 71 71 71 72 73 71 72 72 73 73 73 73 72 72 72 73 73 74 74 73 74 72 72 73 73 74 74 74 75 75 76 76 74 73 72 72 72 75 75 75 75 76 75 74 74 74 75 75 72 68 70 68 70
59 55 54 54 56 57 58 60 63 64 62 64 62 56 58 58 60 62 61 61 60 60 60 61 61 61 62 62 63 63 64 64 66 66 67 67 67 67 67 68 69 69 70 70 71 71 72 72 72 71 71 71 72 72 73 73 73 73 73 72 72 74 73 72 72 73 73 73 73 73 74 75 76 76 77 77 75 74 73 73 72 74 75 75 75 75 74 74 74 71 76 77 76 75 68 65 68
55 55 55 54 53 55 56 59 61 64 63 61 62 58 58 58 60 60 62 60 60 60 60 61 61 62 62 63 63 63 64 64 65 66 66 67 67 68 68 70 69 70 71 71 71 71 71 72 72 72 72 71 72 73 73 73 74 74 73 74 74 72 70 71 71 73 73 73 74 73 75 75 76 76 77 77 76 75 74 73 73 75 76 76 76 75 75 75 75 74 75 77 75 74 71 69 68
53 53 53 54 55 54 55 56 59 62 63 61 61 59 59 59 59 60 62 62 61 60 60 60 60 61 62 62 63 63 63 64 64 66 66 67 67 68 68 69 69 70 70 71 72 73 73 72 73 73 72 72 72 73 74 74 74 74 74 73 72 72 73 71 71 73 72 73 72 75 76 75 76 76 76 77 77 75 74 75 75 76 76 76 76 75 75 75 75 75 73 75 77 75 75 73 72
52 54 55 55 54 54 55 58 61 61 61 60 60 57 59 59 59 59 60 61 60 60 60 60 61 61 62 62 62 63 63 63 64 66 66 66 67 67 68 69 69 70 70 72 73 72 73 73 72 73 73 72 73 73 73 72 73 72 71 72 72 72 71 71 72 73 73 72 72 73 75 75 76 76 76 77 77 77 75 75 76 77 76 76 75 74 73 74 75 75 76 75 74 74 74 74 72
53 54 54 56 55 55 59 59 59 63 61 60 60 59 59 59 59 60 60 60 60 60 61 61 61 62 62 62 62 62 63 62 64 65 66 66 66 67 68 69 69 70 71 72 72 72 73 72 73 72 73 73 73 72 72 72 71 72 71 69 70 70 71 72 72 72 72 72 74 74 75 74 76 76 76 77 76 77 76 77 77 76 76 75 75 74 75 75 77 76 76 77 75 71 69 70 71
52 52 51 53 54 54 58 59 61 62 60 59 60 59 58 59 60 60 60 60 59 59 60 61 61 61 62 62 63 63 63 63 63 64 65 66 66 67 68 69 70 70 71 72 72 72 73 73 73 73 72 73 73 72 72 72 72 71 71 71 70 70 71 71 71 72 71 72 75 76 75 75 76 76 77 77 77 77 77 76 76 76 76 75 76 76 77 76 76 76 76 75 76 73 70 69 70
52 51 51 53 55 58 60 60 60 61 60 59 59 59 58 60 60 61 60 59 59 60 61 61 61 61 62 62 62 63 62 62 62 62 64 65 65 66 67 68 69 69 71 71 72 73 73 73 74 74 73 73 72 73 73 73 73 73 72 72 70 70 72 73 71 72 73 72 73 75 76 76 77 77 77 77 76 77 77 76 76 76 75 75 75 75 75 75 76 75 75 74 72 74 72 73 74
41 42 45 48 57 54 54 58 59 59 59 59 58 58 60 61 61 61 64 60 60 61 62 62 62 61 61 61 61 61 61 62 61 61 62 63 65 66 67 68 69 69 71 71 71 72 72 74 75 75 74 74 74 74 74 74 74 74 73 73 73 72 72 73 74 73 73 73 72 74 75 76 77 76 75 75 75 76 76 76 75 75 76 76 75 74 74 75 76 76 75 75 75 69 68 69 71
47 42 41 49 55 57 55 57 59 59 59 59 58 58 57 60 59 60 63 64 62 62 61 60 61 62 62 62 61 61 60 61 61 60 61 63 64 65 67 68 68 69 70 71 71 71 71 73 74 75 75 75 75 75 75 74 74 73 73 73 73 73 73 73 72 72 73 73 72 73 74 75 76 76 76 75 75 76 77 76 75 75 75 75 75 74 75 73 75 75 76 76 75 72 68 68 71
35 50 47 49 54 54 57 58 56 56 56 58 56 52 52 57 59 57 60 62 61 61 60 59 60 61 61 61 60 60 60 61 61 61 62 63 64 65 67 68 68 68 69 70 70 71 72 73 74 75 75 75 74 75 75 74 73 73 72 72 71 71 71 71 70 70 71 71 70 72 74 74 75 76 76 76 75 75 76 76 75 74 74 75 75 75 75 75 75 74 76 75 75 76 74 70 67
20 24 50 54 54 56 56 56 54 53 52 56 58 52 50 57 56 58 60 60 59 61 60 58 59 60 60 60 60 59 59 59 60 60 61 62 64 65 67 67 67 68 69 70 71 71 72 73 74 75 75 75 75 75 74 74 73 73 72 71 71 71 71 71 73 71 71 72 73 73 74 75 76 75 75 75 75 76 76 76 76 75 74 75 76 76 75 73 73 74 75 75 75 77 77 73 70
20 23 50 55 55 55 55 56 53 54 57 57 57 56 52 51 56 60 59 59 59 59 59 60 60 60 58 60 59 60 59 58 59 60 61 62 64 65 65 66 67 67 68 70 70 71 73 74 74 74 75 75 75 75 74 74 73 73 72 72 72 71 70 72 73 74 73 74 74 74 74 74 76 75 75 76 76 75 75 75 76 75 75 74 75 75 74 74 75 76 76 77 78 77 76 73 72
25 42 52 55 55 55 55 53 53 54 53 53 54 56 52 51 57 60 60 57 57 58 59 59 61 60 59 59 58 59 59 59 58 59 60 62 63 64 65 66 66 67 68 69 70 71 72 73 74 74 74 75 74 75 74 74 74 73 72 72 72 72 72 73 73 74 74 74 74 75 75 75 75 76 76 75 76 75 76 75 76 76 76 75 76 74 74 74 75 75 76 76 76 77 76 75 75
49 54 56 56 56 54 53 54 54 54 51 49 53 54 49 49 56 57 60 57 56 56 58 59 60 60 59 58 58 58 59 60 59 59 60 61 63 64 64 66 66 67 68 69 70 70 71 73 73 74 74 74 74 75 75 74 74 74 73 73 72 73 73 74 74 74 75 75 74 75 75 75 74 75 76 76 76 76 76 76 75 75 75 73 74 74 74 75 75 75 75 76 76 76 77 76 75
55 54 53 52 50 51 52 52 53 52 47 47 52 53 49 48 54 57 56 56 59 58 58 59 61 61 59 58 58 58 58 58 59 59 60 62 62 64 64 65 67 67 68 69 69 70 70 71 73 73 74 74 75 75 75 74 74 74 73 74 74 74 74 74 74 75 75 75 74 74 74 75 75 74 74 76 76 75 76 76 75 74 74 75 75 76 74 73 72 73 74 76 77 76 75 76 76
51 50 50 49 49 50 50 50 53 49 44 43 50 53 51 45 51 54 56 59 60 61 58 58 60 60 59 59 57 57 57 58 58 59 61 61 63 64 65 65 66 67 68 68 68 69 70 71 72 73 74 74 74 74 74 74 73 74 74 74 74 75 75 73 74 74 75 75 75 74 75 75 75 74 75 74 75 74 76 76 76 76 76 75 75 75 75 74 73 74 75 76 76 76 76 76 75
43 48 45 39 46 49 45 49 45 45 42 43 51 53 50 48 50 53 56 57 60 62 62 59 59 60 60 59 58 58 58 57 58 59 62 61 63 64 64 66 68 68 68 69 68 68 70 71 72 72 73 74 74 74 74 74 74 74 74 74 75 75 75 75 75 74 75 75 75 74 75 74 75 74 74 74 74 75 76 77 76 76 76 76 76 76 77 77 77 75 76 75 75 76 75 76 74
43 41 40 33 41 41 41 42 44 43 43 41 50 53 48 49 51 56 55 56 59 63 64 62 60 61 61 61 60 59 59 59 58 58 61 61 63 63 64 66 67 67 67 68 68 69 70 70 72 72 73 74 74 74 74 74 74 75 75 74 75 75 75 75 74 73 74 75 76 75 74 73 75 74 74 75 74 74 75 76 77 76 77 77 77 77 77 77 77 76 76 75 74 76 76 76 75
42 44 32 30 38 37 38 39 37 37 44 48 52 48 47 45 51 56 57 58 58 61 65 66 64 63 63 63 64 63 61 61 61 59 59 60 62 63 64 65 66 67 67 67 68 70 71 71 72 73 73 73 74 74 74 74 74 74 75 74 75 75 74 74 74 74 75 75 74 74 76 74 73 74 74 75 76 76 76 76 76 76 77 77 78 77 76 77 78 77 77 76 76 76 76 75 73
46 45 39 35 33 42 31 40 40 43 44 46 50 47 52 50 57 59 61 59 58 62 64 67 66 66 65 64 64 63 61 59 60 59 60 61 62 64 64 64 65 66 68 67 68 70 70 71 72 72 73 73 73 74 74 74 74 74 75 75 75 75 75 74 75 76 76 75 76 75 76 77 75 75 76 76 76 76 76 76 76 76 77 76 77 77 77 76 77 76 77 77 76 75 76 76 74
42 45 35 34 45 39 42 44 46 46 43 45 50 48 52 53 54 58 60 58 58 62 63 65 65 65 64 64 64 64 63 60 59 59 60 62 62 63 64 65 65 65 66 67 69 70 70 71 71 72 73 72 72 73 73 73 74 74 75 74 74 74 74 73 72 73 72 74 76 75 75 74 76 77 75 75 75 77 77 77 76 75 77 77 77 77 76 76 77 77 76 77 77 75 77 76 74
41 39 39 38 39 38 40 38 43 41 37 44 48 46 48 47 49 59 59 57 59 61 61 64 65 66 64 64 64 65 63 62 61 61 62 63 63 64 64 64 64 65 65 66 70 69 71 71 71 71 72 72 72 72 71 72 73 73 74 74 75 74 72 72 72 72 73 74 75 76 75 75 74 74 75 73 76 76 77 77 77 76 76 76 76 75 76 77 78 76 76 77 77 78 77 77 77
38 34 41 31 37 35 39 42 38 37 36 41 46 46 47 49 49 57 56 57 58 60 61 62 63 65 64 64 65 66 66 66 62 60 61 61 62 63 65 65 66 67 67 67 68 68 69 70 70 69 70 70 71 70 71 72 72 71 72 73 73 74 73 73 73 74 74 73 72 73 73 74 74 75 76 77 76 75 76 77 78 76 77 77 77 77 78 77 78 77 76 75 76 78 77 77 77
37 44 39 27 37 38 37 39 42 39 38 39 43 46 45 50 49 55 56 58 59 59 60 60 61 63 64 64 65 65 66 67 65 64 62 62 62 62 64 64 66 67 67 66 66 68 68 69 71 71 71 71 71 71 72 72 71 71 71 73 75 75 76 75 75 74 73 73 73 72 73 72 74 74 74 75 75 75 75 74 73 73 73 74 75 75 75 77 77 77 75 74 75 77 77 77 76
35 39 37 31 28 28 36 38 40 36 41 39 40 40 44 51 56 57 57 59 60 60 60 60 62 63 65 65 66 67 67 67 68 66 64 64 64 63 62 65 66 67 67 65 65 68 68 68 69 70 70 70 70 70 72 72 71 71 72 72 72 74 74 74 73 74 74 74 74 74 73 73 75 74 74 74 75 75 76 75 73 74 73 75 77 76 76 77 78 77 77 77 77 77 77 76 77
33 35 36 31 29 33 34 34 41 42 37 37 37 34 46 51 56 58 58 59 60 60 60 61 63 63 66 66 67 66 67 68 68 67 65 65 67 66 66 66 66 66 67 66 65 66 69 70 70 71 71 71 71 70 72 73 73 72 71 71 71 72 73 74 73 73 73 73 73 74 75 75 73 74 75 73 74 73 75 75 74 75 76 75 77 78 75 76 77 77 76 74 75 77 77 76 77